Powrót do katalogu

OPS 7613

P/L 6

AktywnyMilitariaLEO
NORAD 4295·PAYLOAD·🇺🇸 United States

Wystrzelony Sep 30, 1969 z Vandenberg Space Force Base

Loading…

Następne Przeloty (najbliższe 24 godziny)

TLE

ŚwieżeSource: Space-Track

Epoka: Sep 14, 2026, 00:30 UTC

1 04295U 69082G   26257.02111222 -.00000019  00000-0  24842-4 0  9993
2 04295  70.0106 279.7971 0019274  24.0890 336.1112 13.95606510897887

Śledź OPS 7613 w czasie rzeczywistym z AllMySat

Download on the App Store